Regional Weather Roundup
Issued by NWS

Home | Current Version | Previous Version | Text Only | Print | Product List | Glossary Off
Versions: 1 2 3 4 5 6 7 8 9 10 11 12 13 14 15 16 17 18 19 20 21 22 23 24 25 26 27 28 29 30 31 32 33 34 35 36 37 38 39 40 41 42 43 44 45 46 47 48 49 50

000
ASUS45 KCYS 270210
RWRWY

WYOMING REGIONAL WEATHER ROUNDUP
NATIONAL WEATHER SERVICE CHEYENNE WY
700 PM MST WED NOV 26 2014

NOTE:  "FAIR" INDICATES FEW OR NO CLOUDS BELOW 12,000 FEET
WITH NO SIGNIFICANT WEATHER AND/OR OBSTRUCTIONS TO VISIBILITY.

WYZ001-270300-
YELLOWSTONE NATIONAL PARK

CITY           SKY/WX    TMP DP  RH WIND       PRES   REMARKS
LK YELLOWSTONE   N/A     33  30  88 MISG      30.27F
W YELLOWSTONE  NOT AVBL

$$
WYZ002>013-054>058-071-098>099-270300-
NORTHERN WYOMING

CITY           SKY/WX    TMP DP  RH WIND       PRES   REMARKS
JACKSON        PTCLDY    39  30  70 SW8       30.29  WCI  34
CODY           CLOUDY    21  21 100 NE7       30.13F VSB 1/4 WCI  13
GREYBULL       CLOUDY    26  25  96 SE3       30.21S
WORLAND        MOCLDY    19  16  88 S10       30.20S WCI   7
SHERIDAN       CLOUDY    28  25  88 NE3       30.16F
BUFFALO        CLOUDY    26  22  84 S13       30.14F WCI  15
GILLETTE       CLOUDY    27  24  89 S6        30.19F WCI  20
HULETT           N/A    N/A N/A N/A MISG        N/A
NEWCASTLE      CLOUDY    28  25  86 CALM      30.24R

$$
WYZ014>020-022>026-101>103-270300-
CENTRAL WYOMING

CITY           SKY/WX    TMP DP  RH WIND       PRES   REMARKS
BIG PINEY      PTCLDY   N/A N/A N/A N10       30.33R
PINEDALE       PTCLDY    32  28  86 NW5       30.34R WCI  27
DUBOIS         FAIR      34  27  75 NW15G23   30.21S WCI  24
LANDER         PTCLDY    37  29  72 NW5       30.17R WCI  33
RIVERTON       MOCLDY    40  29  64 W7        30.17S
CASPER         MOCLDY    17  14  88 N7        30.18R WCI   8
DOUGLAS        PTCLDY    22  19  89 SE7       30.20R WCI  13

$$
WYZ021-027>030-104>119-270300-
SOUTHERN WYOMING

CITY           SKY/WX    TMP DP  RH WIND       PRES   REMARKS
EVANSTON       PTCLDY    35  25  66 SW13      30.39R WCI  26
FORT BRIDGER   FAIR      39  27  62 W13       30.39F WCI  32
ROCK SPRINGS   MOCLDY    38  27  64 VRB7      30.34R WCI  33
DIXON          FAIR      40  27  58 SW7       30.38R
RAWLINS        MOCLDY    39  27  62 W21G31    30.28R WCI  29
SARATOGA       FAIR      37  28  70 W14G20    30.29R WCI  29
LARAMIE        PTCLDY    40  26  57 W25G32    30.21R WCI  29
CHEYENNE       MOCLDY    26  21  81 SW10      30.20R WCI  16
TORRINGTON     MOCLDY    23  22  96 E9        30.24S WCI  13
PINE BLUFFS    FAIR      23  21  93 S7        30.24F WCI  15

$$


USA.gov is the U.S. government's official web portal to all federal, state and local government web resources and services.